Regional Weather Roundup
Issued by NWS

Home | Current Version | Previous Version | Text Only | Print | Product List | Glossary Off
Versions: 1 2 3 4 5 6 7 8 9 10 11 12 13 14 15 16 17 18 19 20 21 22 23 24 25 26 27 28

000
ASUS45 KPSR 201410
RWRAZ

ARIZONA HOURLY REGIONAL WEATHER ROUNDUP
NATIONAL WEATHER SERVICE PHOENIX AZ
700 AM MST MON FEB 20 2017

NOTE: FAIR INDICATES FEW OR NO CLOUDS BELOW 12,000 FEET WITH NO
SIGNIFICANT WEATHER AND/OR OBSTRUCTIONS TO VISIBILITY.

AZZ001>003-036-201500-
NORTHWEST ARIZONA

CITY           SKY/WX    TMP DP  RH WIND       PRES   REMARKS
BULLHEAD CITY  CLOUDY    55  48  76 S6        30.15R
KINGMAN        CLOUDY    45  39  79 CALM      30.16R
$$

AZZ004>008-015-016-018-201500-
NORTH CENTRAL ARIZONA

CITY           SKY/WX    TMP DP  RH WIND       PRES   REMARKS
GRAND CANYON   CLOUDY    34  33  96 CALM      30.19R
WILLIAMS       CLOUDY    36  32  87 CALM      30.21R
PRESCOTT       PTCLDY    40  40 100 SE3       30.20R
FLAGSTAFF      CLOUDY    33  29  85 W7        30.20R WCI  27
PAYSON         CLOUDY    41  39  93 CALM      30.24R
PAGE           MOCLDY    40  31  70 SW5       30.15R
$$

AZZ009>014-017-201500-
NORTHEAST ARIZONA

CITY           SKY/WX    TMP DP  RH WIND       PRES   REMARKS
WINSLOW        CLEAR     29  28  96 SE7       30.21R WCI  22
SAINT JOHNS    CLOUDY    40  31  70 NW7       30.21R
WINDOW ROCK    CLOUDY    36  30  79 NW8       30.19R WCI  30
SHOW LOW       CLOUDY    34  32  93 W3        30.22R
$$

AZZ023-201500-
GREATER PHOENIX AREA

CITY           SKY/WX    TMP DP  RH WIND       PRES   REMARKS
PHOENIX        PTCLDY    50  48  93 E8        30.18R
BUCKEYE        CLEAR     46  46 100 N6        30.19S
GLENDALE       PTCLDY    48  48 100 CALM      30.20R
LUKE AFB       CLEAR     48 N/A N/A CALM      30.18R
DEER VALLEY    CLEAR     50  50 100 E3        30.18R
SCOTTSDALE     CLEAR     49  47  93 CALM      30.18R
MESA-FALCON    PTCLDY   N/A N/A N/A NE7       30.16R
MESA-GATEWAY   PTCLDY    46  45  93 E7        30.20R
CHANDLER       CLEAR     46  46 100 CALM      30.20R
$$

AZZ027-028-201500-
SOUTHWEST MARICOPA COUNTY AND PINAL COUNTY

CITY           SKY/WX    TMP DP  RH WIND       PRES   REMARKS
CASA GRANDE    NOT AVBL
GILA BEND      FAIR      47  46  96 SE6       30.18R
$$

AZZ503-504-507>509-201500-
SOUTHEAST ARIZONA

CITY           SKY/WX    TMP DP  RH WIND       PRES   REMARKS
TUCSON         CLEAR     49  47  93 E5        30.21R
DAVIS-MONTHAN  CLEAR     48  48 100 E5        30.20R
RYAN FIELD     CLEAR     45  45 100 SW3       30.22R
NOGALES        CLEAR     41  39  93 CALM      30.20R
SIERRA VISTA   CLOUDY    43  39  87 NE5       30.23R
DOUGLAS        CLOUDY    41  40  96 SE3       30.22R
SAFFORD        CLOUDY    45  42  89 SE3       30.19R
$$

AZZ020-021-025-026-031-201500-
SOUTHWEST ARIZONA

CITY           SKY/WX    TMP DP  RH WIND       PRES   REMARKS
YUMA           CLEAR     54  51  90 CALM      30.16R
$$

CAZ031-033-041-043-047-048-061-201500-
SOUTHERN CALIFORNIA

CITY           SKY/WX    TMP DP  RH WIND       PRES   REMARKS
DOWNTOWN L.A.  CLOUDY    54  51  90 E7        30.20S
L.A. AIRPORT   CLOUDY    53  52  96 E10       30.20S FOG
SAN DIEGO      MOCLDY    56  45  66 E5        30.23R
BURBANK        CLOUDY    51  48  89 SE8       30.19S FOG
ONTARIO        DRIZZLE   49  49 100 E3        30.21R FOG
RIVERSIDE      CLOUDY    50  50 100 CALM      30.22R
PALM SPRINGS   CLEAR     53  50  89 SW3       30.16R
EL CENTRO NAS  CLEAR     48  43  82 CALM      30.17R
IMPERIAL       CLEAR     53  51  93 CALM      30.15R
BLYTHE         CLEAR     50  49  96 CALM      30.16R
NEEDLES        CLOUDY    57  50  77 SW5       30.15R
$$

NVZ020-UTZ003-201500-
SOUTHERN NEVADA-UTAH

CITY           SKY/WX    TMP DP  RH WIND       PRES   REMARKS
LAS VEGAS      CLOUDY    55  44  66 S8        30.06R
SALT LAKE CITY MOCLDY    46  34  62 S16G24    30.00R
$$

NMZ009-TXZ055-201500-
NEW MEXICO-WEST TEXAS

CITY           SKY/WX    TMP DP  RH WIND       PRES   REMARKS
ALBUQUERQUE    PTCLDY    38  33  82 E5        30.15R WCI  34
EL PASO        PTCLDY    47  35  63 W13G21    30.12R
$$


........................KEY........................
SKY/WX - SKY CONDITION/WEATHER
TMP    - TEMPERATURE IN FAHRENHEIT
DP     - DEW POINT IN FAHRENHEIT
RH     - RELATIVE HUMIDITY IN PERCENT
WIND   - DIRECTION AND SPEED IN MILES PER HOUR (MPH)
VRB    - VARIABLE WIND DIRECTION
PRES   - MEAN SEA LEVEL PRESSURE IN INCHES OF MERCURY
         F - FALLING PRESSURE   R - RISING PRESSURE
         S - STEADY PRESSURE
VSB    - VISIBILITY IN MILES
HX     - HEAT INDEX IN FAHRENHEIT
WCI    - WIND CHILL INDEX IN FAHRENHEIT
TC     - TEMPERATURE IN CELSIUS WHICH IS ALSO KNOWN AS
         TEMPERATURE IN CENTIGRADE
AFB    - AIR FORCE BASE
         LUKE AFB IS LUKE AIR FORCE BASE
         DAVIS-MONTHAN IS DAVIS-MONTHAN AIR FORCE BASE
NAS    - NAVAL AIR STATION
         EL CENTRO NAS IS EL CENTRO NAVAL AIR STATION
N/A    - NOT AVAILABLE





USA.gov is the U.S. government's official web portal to all federal, state and local government web resources and services.